This is the latest recevied weather packets stored in our database for station/object K6CQU-13. If no packets are shown the sender has not sent any weather packets the latest 10 day(s).
| Time | Temp. | Humidity | Pressure | Rain* | Wind** | Luminosity | Snow |
|---|---|---|---|---|---|---|---|
| 1788120917 | 26.11° C | 48% | 1012.3 hPa | 0 mm | - | 854 W/m² | - |
| 1788120617 | 26.11° C | 49% | 1012.4 hPa | 0 mm | - | 854 W/m² | - |
| 1788120317 | 26.11° C | 48% | 1012.5 hPa | 0 mm | - | 855 W/m² | - |
| 1788120017 | 26.11° C | 47% | 1012.5 hPa | 0 mm | - | 856 W/m² | - |
| 1788119717 | 26.11° C | 46% | 1012.5 hPa | 0 mm | - | 852 W/m² | - |
| 1788119417 | 26.11° C | 48% | 1012.6 hPa | 0 mm | - | 849 W/m² | - |
| 1788119117 | 25.56° C | 50% | 1012.6 hPa | 0 mm | - | 847 W/m² | - |
| 1788118819 | 25.56° C | 51% | 1012.6 hPa | 0 mm | - | 844 W/m² | - |
| 1788118516 | 25° C | 51% | 1012.7 hPa | 0 mm | - | 840 W/m² | - |
| 1788118216 | 25° C | 50% | 1012.8 hPa | 0 mm | - | 837 W/m² | - |
| 1788117919 | 25° C | 51% | 1012.9 hPa | 0 mm | - | 834 W/m² | - |
| 1788117617 | 25° C | 51% | 1012.8 hPa | 0 mm | - | 830 W/m² | - |
| 1788117317 | 24.44° C | 52% | 1012.9 hPa | 0 mm | - | 824 W/m² | - |
| 1788117017 | 24.44° C | 53% | 1012.9 hPa | 0 mm | - | 819 W/m² | - |
| 1788116716 | 24.44° C | 51% | 1012.9 hPa | 0 mm | - | 814 W/m² | - |
| 1788116417 | 24.44° C | 52% | 1013.1 hPa | 0 mm | - | 806 W/m² | - |
| 1788116116 | 23.89° C | 53% | 1013 hPa | 0 mm | - | 801 W/m² | - |
| 1788115817 | 23.89° C | 53% | 1013.1 hPa | 0 mm | - | 795 W/m² | - |
| 1788115217 | 23.89° C | 53% | 1013.3 hPa | 0 mm | - | 780 W/m² | - |
| 1788114917 | 23.33° C | 54% | 1013.3 hPa | 0 mm | - | 772 W/m² | - |
| 1788114616 | 23.33° C | 53% | 1013.3 hPa | 0 mm | - | 764 W/m² | - |
| 1788114316 | 23.33° C | 52% | 1013.3 hPa | 0 mm | - | 757 W/m² | - |
| 1788114016 | 23.33° C | 53% | 1013.3 hPa | 0 mm | - | 749 W/m² | - |
| 1788113716 | 23.33° C | 54% | 1013.3 hPa | 0 mm | - | 740 W/m² | - |
| 1788113416 | 22.78° C | 56% | 1013.3 hPa | 0 mm | - | 730 W/m² | - |
* Rain latest hour (hover to see other rain measurements)
** Current wind speed in m/s (hover to see current wind gust speed)